Year,Month,Day,Hour,Minute,Value (Times are PST for temperature in C)
2011,10,13,00,00,6.60
2011,10,13,00,01,6.60
2011,10,13,00,02,6.60
2011,10,13,00,03,6.60
2011,10,13,00,04,6.60
2011,10,13,00,05,6.50
2011,10,13,00,06,6.50
2011,10,13,00,07,6.50
2011,10,13,00,08,6.50
2011,10,13,00,09,6.50
2011,10,13,00,10,6.50
2011,10,13,00,11,6.50
2011,10,13,00,12,6.50
2011,10,13,00,13,6.50
2011,10,13,00,14,6.50
2011,10,13,00,15,6.40
2011,10,13,00,16,6.40
2011,10,13,00,17,6.40
2011,10,13,00,18,6.40
2011,10,13,00,19,6.40
2011,10,13,00,20,6.40
2011,10,13,00,21,6.40
2011,10,13,00,22,6.40
2011,10,13,00,23,6.40
2011,10,13,00,24,6.40
2011,10,13,00,25,6.40
2011,10,13,00,26,6.40
2011,10,13,00,27,6.40
2011,10,13,00,28,6.40
2011,10,13,00,29,6.40
2011,10,13,00,30,6.40
2011,10,13,00,31,6.40
2011,10,13,00,32,6.40
2011,10,13,00,33,6.40
2011,10,13,00,34,6.40
2011,10,13,00,35,6.30
2011,10,13,00,36,6.30
2011,10,13,00,37,6.30
2011,10,13,00,38,6.30
2011,10,13,00,39,6.30
2011,10,13,00,40,6.20
2011,10,13,00,41,6.20
2011,10,13,00,42,6.20
2011,10,13,00,43,6.20
2011,10,13,00,44,6.20
2011,10,13,00,45,6.20
2011,10,13,00,46,6.20
2011,10,13,00,47,6.20
2011,10,13,00,48,6.20
2011,10,13,00,49,6.20
2011,10,13,00,50,6.20
2011,10,13,00,51,6.20
2011,10,13,00,52,6.20
2011,10,13,00,53,6.10
2011,10,13,00,54,6.10
2011,10,13,00,55,6.10
2011,10,13,00,56,6.10
2011,10,13,00,57,6.10
2011,10,13,00,58,6.10
2011,10,13,00,59,6.10
2011,10,13,01,00,6.10
2011,10,13,01,01,6.10
2011,10,13,01,02,6.10
2011,10,13,01,03,6.10
2011,10,13,01,04,6.00
2011,10,13,01,05,6.00
2011,10,13,01,06,6.00
2011,10,13,01,07,6.00
2011,10,13,01,08,6.00
2011,10,13,01,09,6.00
2011,10,13,01,10,5.90
2011,10,13,01,11,5.90
2011,10,13,01,12,5.90
2011,10,13,01,13,5.90
2011,10,13,01,14,5.90
2011,10,13,01,15,5.90
2011,10,13,01,16,5.90
2011,10,13,01,17,5.90
2011,10,13,01,18,5.80
2011,10,13,01,19,5.80
2011,10,13,01,20,5.80
2011,10,13,01,21,5.80
2011,10,13,01,22,5.80
2011,10,13,01,23,5.80
2011,10,13,01,24,5.80
2011,10,13,01,25,5.80
2011,10,13,01,26,5.70
2011,10,13,01,27,5.70
2011,10,13,01,28,5.70
2011,10,13,01,29,5.70
2011,10,13,01,30,5.70
2011,10,13,01,31,5.70
2011,10,13,01,32,5.70
2011,10,13,01,33,5.70
2011,10,13,01,34,5.70
2011,10,13,01,35,5.70
2011,10,13,01,36,5.70
2011,10,13,01,37,5.70
2011,10,13,01,38,5.70
2011,10,13,01,39,5.70
2011,10,13,01,40,5.70
2011,10,13,01,41,5.70
2011,10,13,01,42,5.70
2011,10,13,01,43,5.70
2011,10,13,01,44,5.70
2011,10,13,01,45,5.70
2011,10,13,01,46,5.70
2011,10,13,01,47,5.60
2011,10,13,01,48,5.60
2011,10,13,01,49,5.60
2011,10,13,01,50,5.60
2011,10,13,01,51,5.60
2011,10,13,01,52,5.60
2011,10,13,01,53,5.60
2011,10,13,01,54,5.60
2011,10,13,01,55,5.60
2011,10,13,01,56,5.50
2011,10,13,01,57,5.50
2011,10,13,01,58,5.50
2011,10,13,01,59,5.50
2011,10,13,02,00,5.50
2011,10,13,02,01,5.40
2011,10,13,02,02,5.40
2011,10,13,02,03,5.40
2011,10,13,02,04,5.40
2011,10,13,02,05,5.40
2011,10,13,02,06,5.40
2011,10,13,02,07,5.40
2011,10,13,02,08,5.40
2011,10,13,02,09,5.40
2011,10,13,02,10,5.40
2011,10,13,02,11,5.40
2011,10,13,02,12,5.40
2011,10,13,02,13,5.40
2011,10,13,02,14,5.40
2011,10,13,02,15,5.40
2011,10,13,02,16,5.40
2011,10,13,02,17,5.40
2011,10,13,02,18,5.50
2011,10,13,02,19,5.40
2011,10,13,02,20,5.40
2011,10,13,02,21,5.40
2011,10,13,02,22,5.40
2011,10,13,02,23,5.40
2011,10,13,02,24,5.50
2011,10,13,02,25,5.50
2011,10,13,02,26,5.40
2011,10,13,02,27,5.40
2011,10,13,02,28,5.40
2011,10,13,02,29,5.40
2011,10,13,02,30,5.40
2011,10,13,02,31,5.40
2011,10,13,02,32,5.40
2011,10,13,02,33,5.40
2011,10,13,02,34,5.40
2011,10,13,02,35,5.40
2011,10,13,02,36,5.40
2011,10,13,02,37,5.40
2011,10,13,02,38,5.40
2011,10,13,02,39,5.40
2011,10,13,02,40,5.40
2011,10,13,02,41,5.40
2011,10,13,02,42,5.40
2011,10,13,02,43,5.40
2011,10,13,02,44,5.40
2011,10,13,02,45,5.40
2011,10,13,02,46,5.40
2011,10,13,02,47,5.40
2011,10,13,02,48,5.40
2011,10,13,02,49,5.40
2011,10,13,02,50,5.40
2011,10,13,02,51,5.40
2011,10,13,02,52,5.40
2011,10,13,02,53,5.40
2011,10,13,02,54,5.40
2011,10,13,02,55,5.40
2011,10,13,02,56,5.40
2011,10,13,02,57,5.40
2011,10,13,02,58,5.30
2011,10,13,02,59,5.30
2011,10,13,03,00,5.30
2011,10,13,03,01,5.30
2011,10,13,03,02,5.30
2011,10,13,03,03,5.30
2011,10,13,03,04,5.30
2011,10,13,03,05,5.30
2011,10,13,03,06,5.30
2011,10,13,03,07,5.30
2011,10,13,03,08,5.30
2011,10,13,03,09,5.30
2011,10,13,03,10,5.30
2011,10,13,03,11,5.30
2011,10,13,03,12,5.30
2011,10,13,03,13,5.20
2011,10,13,03,14,5.20
2011,10,13,03,15,5.20
2011,10,13,03,16,5.20
2011,10,13,03,17,5.20
2011,10,13,03,18,5.20
2011,10,13,03,19,5.20
2011,10,13,03,20,5.20
2011,10,13,03,21,5.20
2011,10,13,03,22,5.10
2011,10,13,03,23,5.10
2011,10,13,03,24,5.10
2011,10,13,03,25,5.10
2011,10,13,03,26,5.10
2011,10,13,03,27,5.10
2011,10,13,03,28,5.10
2011,10,13,03,29,5.00
2011,10,13,03,30,5.00
2011,10,13,03,31,5.00
2011,10,13,03,32,5.00
2011,10,13,03,33,5.00
2011,10,13,03,34,5.00
2011,10,13,03,35,5.00
2011,10,13,03,36,5.00
2011,10,13,03,37,5.00
2011,10,13,03,38,5.00
2011,10,13,03,39,4.90
2011,10,13,03,40,4.90
2011,10,13,03,41,4.90
2011,10,13,03,42,4.90
2011,10,13,03,43,4.90
2011,10,13,03,44,4.90
2011,10,13,03,45,4.90
2011,10,13,03,49,4.90
2011,10,13,03,50,4.90
2011,10,13,03,51,4.80
2011,10,13,03,52,4.80
2011,10,13,03,53,4.80
2011,10,13,03,54,4.80
2011,10,13,03,55,4.80
2011,10,13,03,56,4.80
2011,10,13,03,57,4.80
2011,10,13,03,58,4.80
2011,10,13,03,59,4.80
2011,10,13,04,00,4.80
2011,10,13,04,01,4.80
2011,10,13,04,02,4.80
2011,10,13,04,03,4.70
2011,10,13,04,04,4.70
2011,10,13,04,05,4.70
2011,10,13,04,06,4.70
2011,10,13,04,07,4.70
2011,10,13,04,08,4.70
2011,10,13,04,09,4.70
2011,10,13,04,10,4.70
2011,10,13,04,11,4.60
2011,10,13,04,12,4.60
2011,10,13,04,13,4.60
2011,10,13,04,14,4.60
2011,10,13,04,15,4.60
2011,10,13,04,16,4.60
2011,10,13,04,17,4.60
2011,10,13,04,18,4.60
2011,10,13,04,19,4.60
2011,10,13,04,20,4.60
2011,10,13,04,21,4.60
2011,10,13,04,22,4.50
2011,10,13,04,23,4.50
2011,10,13,04,24,4.50
2011,10,13,04,25,4.50
2011,10,13,04,26,4.50
2011,10,13,04,27,4.50
2011,10,13,04,28,4.50
2011,10,13,04,29,4.50
2011,10,13,04,30,4.50
2011,10,13,04,31,4.50
2011,10,13,04,32,4.50
2011,10,13,04,33,4.50
2011,10,13,04,34,4.50
2011,10,13,04,35,4.50
2011,10,13,04,36,4.40
2011,10,13,04,37,4.40
2011,10,13,04,38,4.40
2011,10,13,04,39,4.40
2011,10,13,04,40,4.40
2011,10,13,04,41,4.40
2011,10,13,04,42,4.40
2011,10,13,04,43,4.30
2011,10,13,04,44,4.30
2011,10,13,04,45,4.30
2011,10,13,04,46,4.30
2011,10,13,04,47,4.30
2011,10,13,04,48,4.30
2011,10,13,04,49,4.30
2011,10,13,04,50,4.30
2011,10,13,04,51,4.30
2011,10,13,04,52,4.20
2011,10,13,04,53,4.20
2011,10,13,04,54,4.20
2011,10,13,04,55,4.20
2011,10,13,04,56,4.20
2011,10,13,04,57,4.20
2011,10,13,04,58,4.20
2011,10,13,04,59,4.20
2011,10,13,05,00,4.20
2011,10,13,05,01,4.20
2011,10,13,05,02,4.20
2011,10,13,05,03,4.20
2011,10,13,05,04,4.20
2011,10,13,05,05,4.10
2011,10,13,05,06,4.10
2011,10,13,05,07,4.00
2011,10,13,05,08,4.00
2011,10,13,05,09,3.90
2011,10,13,05,10,3.90
2011,10,13,05,11,3.90
2011,10,13,05,12,3.90
2011,10,13,05,13,3.80
2011,10,13,05,14,3.80
2011,10,13,05,15,3.80
2011,10,13,05,16,3.80
2011,10,13,05,17,3.80
2011,10,13,05,18,3.80
2011,10,13,05,19,3.80
2011,10,13,05,20,3.80
2011,10,13,05,21,3.80
2011,10,13,05,22,3.80
2011,10,13,05,23,3.80
2011,10,13,05,24,3.80
2011,10,13,05,25,3.80
2011,10,13,05,26,3.80
2011,10,13,05,27,3.80
2011,10,13,05,28,3.80
2011,10,13,05,29,3.80
2011,10,13,05,30,3.80
2011,10,13,05,31,3.80
2011,10,13,05,32,3.80
2011,10,13,05,33,3.80
2011,10,13,05,34,3.80
2011,10,13,05,35,3.80
2011,10,13,05,36,3.80
2011,10,13,05,37,3.80
2011,10,13,05,38,3.80
2011,10,13,05,39,3.80
2011,10,13,05,40,3.80
2011,10,13,05,41,3.80
2011,10,13,05,42,3.80
2011,10,13,05,43,3.80
2011,10,13,05,44,3.80
2011,10,13,05,45,3.80
2011,10,13,05,46,3.80
2011,10,13,05,47,3.80
2011,10,13,05,48,3.90
2011,10,13,05,49,3.90
2011,10,13,05,50,3.90
2011,10,13,05,51,4.00
2011,10,13,05,52,4.00
2011,10,13,05,53,4.00
2011,10,13,05,54,4.00
2011,10,13,05,55,4.00
2011,10,13,05,56,4.00
2011,10,13,05,57,4.00
2011,10,13,05,58,4.00
2011,10,13,05,59,4.00
2011,10,13,06,00,4.00
2011,10,13,06,01,4.00
2011,10,13,06,02,4.00
2011,10,13,06,03,4.00
2011,10,13,06,04,4.00
2011,10,13,06,05,3.90
2011,10,13,06,06,3.90
2011,10,13,06,07,3.90
2011,10,13,06,08,3.90
2011,10,13,06,09,3.90
2011,10,13,06,10,3.90
2011,10,13,06,11,3.90
2011,10,13,06,12,3.90
2011,10,13,06,13,3.90
2011,10,13,06,14,3.90
2011,10,13,06,15,3.90
2011,10,13,06,16,3.90
2011,10,13,06,17,3.80
2011,10,13,06,18,3.80
2011,10,13,06,19,3.80
2011,10,13,06,20,3.80
2011,10,13,06,21,3.80
2011,10,13,06,22,3.80
2011,10,13,06,23,3.80
2011,10,13,06,24,3.80
2011,10,13,06,25,3.90
2011,10,13,06,26,3.90
2011,10,13,06,27,3.90
2011,10,13,06,28,4.00
2011,10,13,06,29,4.00
2011,10,13,06,30,4.10
2011,10,13,06,31,4.10
2011,10,13,06,32,4.20
2011,10,13,06,33,4.20
2011,10,13,06,34,4.30
2011,10,13,06,35,4.30
2011,10,13,06,36,4.20
2011,10,13,06,37,4.20
2011,10,13,06,38,4.20
2011,10,13,06,39,4.20
2011,10,13,06,40,4.10
2011,10,13,06,41,4.10
2011,10,13,06,42,4.10
2011,10,13,06,43,4.10
2011,10,13,06,44,4.10
2011,10,13,06,45,4.00
2011,10,13,06,46,4.00
2011,10,13,06,47,4.00
2011,10,13,06,48,3.90
2011,10,13,06,49,3.90
2011,10,13,06,50,3.90
2011,10,13,06,51,3.80
2011,10,13,06,52,3.80
2011,10,13,06,53,3.80
2011,10,13,06,54,3.80
2011,10,13,06,55,3.70
2011,10,13,06,56,3.70
2011,10,13,06,57,3.70
2011,10,13,06,58,3.70
2011,10,13,06,59,3.70
2011,10,13,07,00,3.70
2011,10,13,07,01,3.80
2011,10,13,07,02,3.80
2011,10,13,07,03,3.80
2011,10,13,07,04,3.80
2011,10,13,07,05,3.80
2011,10,13,07,06,3.80
2011,10,13,07,07,3.70
2011,10,13,07,08,3.70
2011,10,13,07,09,3.70
2011,10,13,07,10,3.70
2011,10,13,07,11,3.60
2011,10,13,07,12,3.60
2011,10,13,07,13,3.60
2011,10,13,07,14,3.50
2011,10,13,07,15,3.50
2011,10,13,07,16,3.50
2011,10,13,07,17,3.50
2011,10,13,07,18,3.50
2011,10,13,07,19,3.50
2011,10,13,07,20,3.50
2011,10,13,07,21,3.50
2011,10,13,07,22,3.50
2011,10,13,07,23,3.50
2011,10,13,07,24,3.50
2011,10,13,07,25,3.50
2011,10,13,07,26,3.50
2011,10,13,07,27,3.50
2011,10,13,07,28,3.50
2011,10,13,07,29,3.50
2011,10,13,07,30,3.50
2011,10,13,07,31,3.60
2011,10,13,07,32,3.60
2011,10,13,07,33,3.60
2011,10,13,07,34,3.60
2011,10,13,07,35,3.50
2011,10,13,07,36,3.60
2011,10,13,07,37,3.50
2011,10,13,07,38,3.50
2011,10,13,07,39,3.50
2011,10,13,07,40,3.40
2011,10,13,07,41,3.40
2011,10,13,07,42,3.40
2011,10,13,07,43,3.40
2011,10,13,07,44,3.40
2011,10,13,07,45,3.40
2011,10,13,07,46,3.40
2011,10,13,07,47,3.40
2011,10,13,07,48,3.40
2011,10,13,07,49,3.40
2011,10,13,07,50,3.40
2011,10,13,07,51,3.40
2011,10,13,07,52,3.40
2011,10,13,07,53,3.40
2011,10,13,07,54,3.40
2011,10,13,07,55,3.40
2011,10,13,07,56,3.40
2011,10,13,07,57,3.30
2011,10,13,07,58,3.30
2011,10,13,07,59,3.40
2011,10,13,08,00,3.40
2011,10,13,08,01,3.40
2011,10,13,08,02,3.40
2011,10,13,08,03,3.40
2011,10,13,08,04,3.40
2011,10,13,08,05,3.40
2011,10,13,08,06,3.50
2011,10,13,08,07,3.50
2011,10,13,08,08,3.50
2011,10,13,08,09,3.60
2011,10,13,08,10,3.60
2011,10,13,08,11,3.70
2011,10,13,08,12,3.70
2011,10,13,08,13,3.80
2011,10,13,08,14,3.80
2011,10,13,08,15,3.90
2011,10,13,08,16,4.00
2011,10,13,08,17,4.10
2011,10,13,08,18,4.10
2011,10,13,08,19,4.20
2011,10,13,08,20,4.30
2011,10,13,08,21,4.30
2011,10,13,08,22,4.40
2011,10,13,08,23,4.40
2011,10,13,08,24,4.50
2011,10,13,08,25,4.50
2011,10,13,08,26,4.60
2011,10,13,08,27,4.60
2011,10,13,08,28,4.70
2011,10,13,08,29,4.70
2011,10,13,08,30,4.80
2011,10,13,08,31,4.80
2011,10,13,08,32,4.80
2011,10,13,08,33,4.80
2011,10,13,08,34,4.90
2011,10,13,08,35,4.90
2011,10,13,08,36,5.00
2011,10,13,08,37,5.00
2011,10,13,08,38,5.10
2011,10,13,08,39,5.10
2011,10,13,08,40,5.10
2011,10,13,08,41,5.20
2011,10,13,08,42,5.20
2011,10,13,08,43,5.30
2011,10,13,08,44,5.30
2011,10,13,08,45,5.30
2011,10,13,08,46,5.40
2011,10,13,08,47,5.40
2011,10,13,08,48,5.50
2011,10,13,08,49,5.60
2011,10,13,08,50,5.60
2011,10,13,08,51,5.60
2011,10,13,08,52,5.70
2011,10,13,08,53,5.70
2011,10,13,08,54,5.70
2011,10,13,08,55,5.80
2011,10,13,08,56,5.80
2011,10,13,08,57,5.80
2011,10,13,08,58,5.80
2011,10,13,08,59,5.80
2011,10,13,09,00,5.90
2011,10,13,09,01,5.90
2011,10,13,09,02,6.00
2011,10,13,09,03,6.00
2011,10,13,09,04,6.10
2011,10,13,09,05,6.10
2011,10,13,09,06,6.20
2011,10,13,09,07,6.20
2011,10,13,09,08,6.20
2011,10,13,09,09,6.30
2011,10,13,09,10,6.30
2011,10,13,09,11,6.40
2011,10,13,09,12,6.40
2011,10,13,09,13,6.50
2011,10,13,09,14,6.50
2011,10,13,09,15,6.60
2011,10,13,09,16,6.60
2011,10,13,09,17,6.70
2011,10,13,09,18,6.70
2011,10,13,09,19,6.80
2011,10,13,09,20,6.80
2011,10,13,09,21,6.80
2011,10,13,09,22,6.80
2011,10,13,09,23,6.90
2011,10,13,09,24,6.90
2011,10,13,09,25,7.00
2011,10,13,09,26,7.00
2011,10,13,09,27,7.10
2011,10,13,09,28,7.10
2011,10,13,09,29,7.20
2011,10,13,09,30,7.20
2011,10,13,09,31,7.20
2011,10,13,09,32,7.20
2011,10,13,09,33,7.20
2011,10,13,09,34,7.30
2011,10,13,09,35,7.30
2011,10,13,09,36,7.30
2011,10,13,09,37,7.30
2011,10,13,09,38,7.40
2011,10,13,09,39,7.40
2011,10,13,09,40,7.40
2011,10,13,09,41,7.50
2011,10,13,09,42,7.60
2011,10,13,09,43,7.60
2011,10,13,09,44,7.70
2011,10,13,09,45,7.70
2011,10,13,09,46,7.80
2011,10,13,09,47,7.80
2011,10,13,09,48,7.90
2011,10,13,09,49,8.00
2011,10,13,09,50,8.10
2011,10,13,09,51,8.10
2011,10,13,09,52,8.20
2011,10,13,09,53,8.20
2011,10,13,09,54,8.30
2011,10,13,09,55,8.40
2011,10,13,09,56,8.40
2011,10,13,09,57,8.50
2011,10,13,09,58,8.50
2011,10,13,09,59,8.60
2011,10,13,10,00,8.60
2011,10,13,10,01,8.70
2011,10,13,10,02,8.70
2011,10,13,10,03,8.80
2011,10,13,10,04,8.80
2011,10,13,10,05,8.80
2011,10,13,10,06,8.90
2011,10,13,10,07,8.90
2011,10,13,10,08,8.90
2011,10,13,10,09,8.90
2011,10,13,10,10,8.90
2011,10,13,10,11,8.90
2011,10,13,10,12,8.90
2011,10,13,10,13,8.90
2011,10,13,10,14,9.00
2011,10,13,10,15,9.10
2011,10,13,10,16,9.20
2011,10,13,10,17,9.30
2011,10,13,10,18,9.40
2011,10,13,10,19,9.50
2011,10,13,10,20,9.50
2011,10,13,10,21,9.60
2011,10,13,10,22,9.70
2011,10,13,10,23,9.70
2011,10,13,10,24,9.80
2011,10,13,10,25,9.80
2011,10,13,10,26,9.80
2011,10,13,10,27,9.80
2011,10,13,10,28,9.90
2011,10,13,10,29,9.90
2011,10,13,10,30,10.00
2011,10,13,10,31,10.00
2011,10,13,10,32,10.10
2011,10,13,10,33,10.10
2011,10,13,10,34,10.20
2011,10,13,10,35,10.20
2011,10,13,10,36,10.20
2011,10,13,10,37,10.20
2011,10,13,10,38,10.10
2011,10,13,10,39,10.10
2011,10,13,10,40,10.10
2011,10,13,10,41,10.20
2011,10,13,10,42,10.20
2011,10,13,10,43,10.20
2011,10,13,10,44,10.10
2011,10,13,10,45,10.10
2011,10,13,10,46,10.10
2011,10,13,10,47,10.00
2011,10,13,10,48,10.00
2011,10,13,10,49,9.90
2011,10,13,10,50,9.90
2011,10,13,10,51,9.90
2011,10,13,10,52,9.90
2011,10,13,10,53,9.90
2011,10,13,10,54,9.90
2011,10,13,10,55,9.90
2011,10,13,10,56,9.90
2011,10,13,10,57,9.90
2011,10,13,10,58,10.00
2011,10,13,10,59,10.10
2011,10,13,11,00,10.10
2011,10,13,11,01,10.20
2011,10,13,11,02,10.20
2011,10,13,11,03,10.20
2011,10,13,11,04,10.30
2011,10,13,11,05,10.30
2011,10,13,11,06,10.30
2011,10,13,11,07,10.30
2011,10,13,11,08,10.20
2011,10,13,11,09,10.20
2011,10,13,11,10,10.20
2011,10,13,11,11,10.30
2011,10,13,11,12,10.30
2011,10,13,11,13,10.40
2011,10,13,11,14,10.50
2011,10,13,11,15,10.60
2011,10,13,11,16,10.70
2011,10,13,11,17,10.70
2011,10,13,11,18,10.80
2011,10,13,11,19,10.80
2011,10,13,11,20,10.90
2011,10,13,11,21,11.00
2011,10,13,11,22,11.00
2011,10,13,11,23,11.10
2011,10,13,11,24,11.10
2011,10,13,11,25,11.10
2011,10,13,11,26,11.10
2011,10,13,11,27,11.10
2011,10,13,11,28,11.10
2011,10,13,11,29,11.10
2011,10,13,11,30,11.10
2011,10,13,11,31,11.10
2011,10,13,11,32,11.10
2011,10,13,11,33,11.10
2011,10,13,11,34,11.10
2011,10,13,11,35,11.10
2011,10,13,11,36,11.10
2011,10,13,11,37,11.10
2011,10,13,11,38,11.10
2011,10,13,11,39,11.10
2011,10,13,11,40,11.10
2011,10,13,11,41,11.10
2011,10,13,11,42,11.10
2011,10,13,11,43,11.10
2011,10,13,11,44,11.00
2011,10,13,11,45,11.10
2011,10,13,11,46,11.10
2011,10,13,11,47,11.10
2011,10,13,11,48,11.10
2011,10,13,11,49,11.10
2011,10,13,11,50,11.00
2011,10,13,11,51,11.10
2011,10,13,11,52,11.10
2011,10,13,11,53,11.10
2011,10,13,11,54,11.10
2011,10,13,11,55,11.20
2011,10,13,11,56,11.20
2011,10,13,11,57,11.20
2011,10,13,11,58,11.20
2011,10,13,11,59,11.20
2011,10,13,12,00,11.30
2011,10,13,12,01,11.30
2011,10,13,12,02,11.30
2011,10,13,12,03,11.30
2011,10,13,12,04,11.30
2011,10,13,12,05,11.30
2011,10,13,12,06,11.30
2011,10,13,12,07,11.30
2011,10,13,12,08,11.30
2011,10,13,12,09,11.30
2011,10,13,12,10,11.30
2011,10,13,12,11,11.30
2011,10,13,12,12,11.20
2011,10,13,12,13,11.20
2011,10,13,12,14,11.20
2011,10,13,12,15,11.20
2011,10,13,12,16,11.20
2011,10,13,12,17,11.20
2011,10,13,12,18,11.20
2011,10,13,12,19,11.20
2011,10,13,12,20,11.20
2011,10,13,12,21,11.20
2011,10,13,12,22,11.20
2011,10,13,12,23,11.30
2011,10,13,12,24,11.30
2011,10,13,12,25,11.30
2011,10,13,12,26,11.40
2011,10,13,12,27,11.40
2011,10,13,12,28,11.40
2011,10,13,12,29,11.40
2011,10,13,12,30,11.50
2011,10,13,12,31,11.50
2011,10,13,12,32,11.60
2011,10,13,12,33,11.60
2011,10,13,12,34,11.60
2011,10,13,12,35,11.60
2011,10,13,12,36,11.60
2011,10,13,12,37,11.60
2011,10,13,12,38,11.60
2011,10,13,12,39,11.60
2011,10,13,12,40,11.60
2011,10,13,12,41,11.60
2011,10,13,12,42,11.60
2011,10,13,12,43,11.60
2011,10,13,12,44,11.60
2011,10,13,12,45,11.60
2011,10,13,12,46,11.60
2011,10,13,12,47,11.60
2011,10,13,12,48,11.60
2011,10,13,12,49,11.50
2011,10,13,12,50,11.50
2011,10,13,12,51,11.50
2011,10,13,12,52,11.50
2011,10,13,12,53,11.50
2011,10,13,12,54,11.50
2011,10,13,12,55,11.60
2011,10,13,12,56,11.70
2011,10,13,12,57,11.70
2011,10,13,12,58,11.90
2011,10,13,12,59,12.00
2011,10,13,13,00,12.20
2011,10,13,13,01,12.30
2011,10,13,13,02,12.50
2011,10,13,13,03,12.60
2011,10,13,13,04,12.70
2011,10,13,13,05,12.90
2011,10,13,13,06,13.00
2011,10,13,13,07,13.00
2011,10,13,13,08,13.00
2011,10,13,13,09,13.00
2011,10,13,13,10,13.00
2011,10,13,13,11,12.90
2011,10,13,13,12,12.80
2011,10,13,13,13,12.80
2011,10,13,13,14,12.70
2011,10,13,13,15,12.60
2011,10,13,13,16,12.60
2011,10,13,13,17,12.50
2011,10,13,13,18,12.50
2011,10,13,13,19,12.40
2011,10,13,13,20,12.40
2011,10,13,13,21,12.40
2011,10,13,13,22,12.30
2011,10,13,13,23,12.30
2011,10,13,13,24,12.30
2011,10,13,13,25,12.30
2011,10,13,13,26,12.40
2011,10,13,13,27,12.50
2011,10,13,13,28,12.50
2011,10,13,13,29,12.60
2011,10,13,13,30,12.60
2011,10,13,13,31,12.70
2011,10,13,13,32,12.70
2011,10,13,13,33,12.70
2011,10,13,13,34,12.70
2011,10,13,13,35,12.80
2011,10,13,13,36,12.80
2011,10,13,13,37,12.80
2011,10,13,13,38,12.80
2011,10,13,13,39,12.80
2011,10,13,13,40,12.80
2011,10,13,13,41,12.80
2011,10,13,13,42,12.80
2011,10,13,13,43,12.70
2011,10,13,13,44,12.70
2011,10,13,13,45,12.70
2011,10,13,13,46,12.70
2011,10,13,13,47,12.70
2011,10,13,13,48,12.60
2011,10,13,13,49,12.50
2011,10,13,13,50,12.50
2011,10,13,13,51,12.50
2011,10,13,13,52,12.40
2011,10,13,13,53,12.40
2011,10,13,13,54,12.50
2011,10,13,13,55,12.60
2011,10,13,13,56,12.60
2011,10,13,13,57,12.70
2011,10,13,13,58,12.80
2011,10,13,13,59,12.80
2011,10,13,14,00,12.80
2011,10,13,14,01,12.90
2011,10,13,14,02,13.00
2011,10,13,14,03,13.00
2011,10,13,14,04,13.00
2011,10,13,14,05,13.00
2011,10,13,14,06,13.10
2011,10,13,14,07,13.00
2011,10,13,14,08,13.00
2011,10,13,14,09,13.00
2011,10,13,14,10,12.90
2011,10,13,14,11,12.90
2011,10,13,14,12,12.90
2011,10,13,14,13,12.90
2011,10,13,14,14,12.90
2011,10,13,14,15,12.90
2011,10,13,14,16,12.90
2011,10,13,14,17,12.90
2011,10,13,14,18,12.80
2011,10,13,14,19,12.80
2011,10,13,14,20,12.80
2011,10,13,14,21,12.80
2011,10,13,14,22,12.90
2011,10,13,14,23,12.90
2011,10,13,14,24,12.90
2011,10,13,14,25,12.90
2011,10,13,14,26,12.90
2011,10,13,14,27,12.90
2011,10,13,14,28,13.00
2011,10,13,14,29,13.00
2011,10,13,14,30,13.10
2011,10,13,14,31,13.10
2011,10,13,14,32,13.20
2011,10,13,14,33,13.20
2011,10,13,14,34,13.20
2011,10,13,14,35,13.20
2011,10,13,14,36,13.20
2011,10,13,14,37,13.10
2011,10,13,14,38,13.10
2011,10,13,14,39,13.10
2011,10,13,14,40,13.10
2011,10,13,14,41,13.10
2011,10,13,14,42,13.20
2011,10,13,14,43,13.20
2011,10,13,14,44,13.20
2011,10,13,14,45,13.20
2011,10,13,14,46,13.20
2011,10,13,14,47,13.10
2011,10,13,14,48,13.10
2011,10,13,14,49,13.00
2011,10,13,14,50,13.00
2011,10,13,14,51,12.90
2011,10,13,14,52,12.90
2011,10,13,14,53,12.80
2011,10,13,14,54,12.80
2011,10,13,14,55,12.70
2011,10,13,14,56,12.70
2011,10,13,14,57,12.70
2011,10,13,14,58,12.70
2011,10,13,14,59,12.70
2011,10,13,15,00,12.60
2011,10,13,15,01,12.60
2011,10,13,15,02,12.60
2011,10,13,15,03,12.60
2011,10,13,15,04,12.60
2011,10,13,15,05,12.70
2011,10,13,15,06,12.70
2011,10,13,15,07,12.70
2011,10,13,15,08,12.70
2011,10,13,15,09,12.80
2011,10,13,15,10,12.90
2011,10,13,15,11,12.90
2011,10,13,15,12,13.00
2011,10,13,15,13,13.10
2011,10,13,15,14,13.20
2011,10,13,15,15,13.20
2011,10,13,15,16,13.20
2011,10,13,15,17,13.20
2011,10,13,15,18,13.20
2011,10,13,15,19,13.10
2011,10,13,15,20,13.10
2011,10,13,15,21,13.20
2011,10,13,15,22,13.20
2011,10,13,15,23,13.20
2011,10,13,15,24,13.20
2011,10,13,15,25,13.20
2011,10,13,15,26,13.20
2011,10,13,15,27,13.20
2011,10,13,15,28,13.10
2011,10,13,15,29,13.10
2011,10,13,15,30,13.00
2011,10,13,15,31,12.90
2011,10,13,15,32,12.90
2011,10,13,15,33,12.80
2011,10,13,15,34,12.80
2011,10,13,15,35,12.80
2011,10,13,15,36,12.80
2011,10,13,15,37,12.80
2011,10,13,15,38,12.80
2011,10,13,15,39,12.80
2011,10,13,15,40,12.90
2011,10,13,15,41,12.90
2011,10,13,15,42,12.90
2011,10,13,15,43,12.90
2011,10,13,15,44,12.90
2011,10,13,15,45,12.80
2011,10,13,15,46,12.80
2011,10,13,15,47,12.80
2011,10,13,15,48,12.90
2011,10,13,15,49,12.90
2011,10,13,15,50,12.90
2011,10,13,15,51,12.80
2011,10,13,15,52,12.80
2011,10,13,15,53,12.80
2011,10,13,15,54,12.80
2011,10,13,15,55,12.80
2011,10,13,15,56,12.80
2011,10,13,15,57,12.80
2011,10,13,15,58,12.70
2011,10,13,15,59,12.70
2011,10,13,16,00,12.70
2011,10,13,16,01,12.60
2011,10,13,16,02,12.60
2011,10,13,16,03,12.60
2011,10,13,16,04,12.60
2011,10,13,16,05,12.60
2011,10,13,16,06,12.60
2011,10,13,16,07,12.70
2011,10,13,16,08,12.70
2011,10,13,16,09,12.70
2011,10,13,16,10,12.70
2011,10,13,16,11,12.70
2011,10,13,16,12,12.70
2011,10,13,16,13,12.70
2011,10,13,16,14,12.70
2011,10,13,16,15,12.70
2011,10,13,16,16,12.70
2011,10,13,16,17,12.70
2011,10,13,16,18,12.70
2011,10,13,16,19,12.70
2011,10,13,16,20,12.80
2011,10,13,16,21,12.80
2011,10,13,16,22,12.80
2011,10,13,16,23,12.80
2011,10,13,16,24,12.80
2011,10,13,16,25,12.90
2011,10,13,16,26,12.90
2011,10,13,16,27,12.90
2011,10,13,16,28,12.90
2011,10,13,16,29,12.90
2011,10,13,16,30,12.90
2011,10,13,16,31,12.80
2011,10,13,16,32,12.80
2011,10,13,16,33,12.80
2011,10,13,16,34,12.80
2011,10,13,16,35,12.70
2011,10,13,16,36,12.70
2011,10,13,16,37,12.70
2011,10,13,16,38,12.70
2011,10,13,16,39,12.60
2011,10,13,16,40,12.60
2011,10,13,16,41,12.60
2011,10,13,16,42,12.50
2011,10,13,16,43,12.40
2011,10,13,16,44,12.40
2011,10,13,16,45,12.40
2011,10,13,16,46,12.30
2011,10,13,16,47,12.30
2011,10,13,16,48,12.30
2011,10,13,16,49,12.30
2011,10,13,16,50,12.20
2011,10,13,16,51,12.20
2011,10,13,16,52,12.20
2011,10,13,16,53,12.20
2011,10,13,16,54,12.10
2011,10,13,16,55,12.10
2011,10,13,16,56,12.10
2011,10,13,16,57,12.10
2011,10,13,16,58,12.00
2011,10,13,16,59,12.00
2011,10,13,17,00,11.90
2011,10,13,17,01,11.90
2011,10,13,17,02,11.90
2011,10,13,17,03,11.80
2011,10,13,17,04,11.80
2011,10,13,17,05,11.70
2011,10,13,17,06,11.70
2011,10,13,17,07,11.70
2011,10,13,17,08,11.70
2011,10,13,17,09,11.70
2011,10,13,17,10,11.60
2011,10,13,17,11,11.60
2011,10,13,17,12,11.60
2011,10,13,17,13,11.60
2011,10,13,17,14,11.60
2011,10,13,17,15,11.60
2011,10,13,17,16,11.60
2011,10,13,17,17,11.50
2011,10,13,17,18,11.50
2011,10,13,17,19,11.50
2011,10,13,17,20,11.50
2011,10,13,17,21,11.40
2011,10,13,17,22,11.40
2011,10,13,17,23,11.40
2011,10,13,17,24,11.40
2011,10,13,17,25,11.40
2011,10,13,17,26,11.40
2011,10,13,17,27,11.30
2011,10,13,17,28,11.30
2011,10,13,17,29,11.30
2011,10,13,17,30,11.30
2011,10,13,17,31,11.30
2011,10,13,17,32,11.30
2011,10,13,17,33,11.20
2011,10,13,17,34,11.20
2011,10,13,17,35,11.20
2011,10,13,17,36,11.20
2011,10,13,17,37,11.20
2011,10,13,17,38,11.20
2011,10,13,17,39,11.20
2011,10,13,17,40,11.20
2011,10,13,17,41,11.10
2011,10,13,17,42,11.10
2011,10,13,17,43,11.10
2011,10,13,17,44,11.10
2011,10,13,17,45,11.10
2011,10,13,17,46,11.00
2011,10,13,17,47,11.00
2011,10,13,17,48,10.90
2011,10,13,17,49,10.90
2011,10,13,17,50,10.90